Location: Aalen
(48.8330°N, 10.1000°E)
Time: 08:05:42
(UTC+01:00)

N. Korean satellite - Pass Details

Date: 04 December 2022
Orbit: 407 x 442 km, 97.3° (Epoch: 04 February)

Event Time Altitude Azimuth Distance (km) Brightness Sun altitude
Rises 04:31:09 0° 33° (NNE) 2,519 10.6 -32.6°
Reaches altitude 10° 04:34:26 10° 66° (ENE) 1,627 10.0 -32.1°
Maximum altitude 04:35:45 12° 89° (E) 1,515 9.9 -31.8°
Drops below altitude 10° 04:37:04 10° 111° (ESE) 1,612 9.9 -31.6°
Sets 04:40:16 0° 145° (SE) 2,465 10.6 -31.1°
